Weather History for Newport, VT

Change the Weather History Date:

Tuesday, October 2, 2012

  Actual Average Record
Temperature  
Mean Temperature 59 °F -  
Max Temperature 67 °F 62 °F 83 °F (1950)
Min Temperature 51 °F 42 °F 26 °F (1934)
Degree Days  
Heating Degree Days 6    
Growing Degree Days 9 (Base 50)    
Moisture  
Dew Point 51 °F    
Average Humidity 73    
Maximum Humidity 83    
Minimum Humidity 55    
Precipitation  
Precipitation 0.00 in - - ()
Sea Level Pressure  
Sea Level Pressure 29.99 in    
Wind  
Wind Speed 3 mph (SSW)    
Max Wind Speed 7 mph    
Max Gust Speed -    
Visibility 10 miles    
Events Rain    
Averages and records for this station are not official NWS values.
T = Trace of Precipitation, MM = Missing Value Source: NWS Daily Summary

Daily Weather History Graph

Daily Weather History Graph

Search for Another Location

Airport:

Trip Planner

Search our weather history database for the weather conditions in past years. The results will help you decide how hot, cold, wet, or windy it might be!

Date:

Astronomy

Oct. 02, 2012 Rise Set
Actual Time 6:48 AM EDT 6:26 PM EDT
Civil Twilight 6:19 AM EDT 6:55 PM EDT
Nautical Twilight 5:45 AM EDT 7:29 PM EDT
Astronomical Twilight 5:11 AM EDT 8:04 PM EDT
Moon 7:28 PM EDT (10/2) 9:21 AM EDT (10/2)
Length of Visible Light 12h 36m
Length of Day
11h 38m
Waning Gibbous, 94% of the Moon is Illuminated
Oct 2
Waning Gibbous
Oct 8
Last Quarter
Oct 15
New
Oct 21
First Quarter
Oct 29
Full

Hourly Weather History & Observations

Time (EDT) Temp. Dew Point Humidity Pressure Visibility Wind Dir Wind Speed Gust Speed Precip Events Conditions
12:15 AM 58.3 °F 49.5 °F 72% 29.90 in 10.0 mi South 5.8 mph - N/A   Overcast
12:35 AM 58.3 °F 49.6 °F 73% 29.91 in 10.0 mi Calm Calm - N/A   Overcast
12:55 AM 57.6 °F 50.0 °F 76% 29.91 in 10.0 mi WSW 4.6 mph - N/A   Overcast
1:15 AM 56.5 °F 49.5 °F 77% 29.91 in 10.0 mi SW 4.6 mph - N/A   Overcast
1:35 AM 56.3 °F 49.5 °F 78% 29.93 in 10.0 mi Calm Calm - N/A   Overcast
1:55 AM 55.8 °F 49.1 °F 78% 29.92 in 10.0 mi SSE 3.5 mph - N/A   Overcast
2:15 AM 55.4 °F 49.3 °F 80% 29.91 in 10.0 mi SSW 3.5 mph - N/A   Scattered Clouds
2:35 AM 56.3 °F 49.3 °F 77% 29.91 in 10.0 mi South 3.5 mph - N/A   Clear
2:55 AM 54.9 °F 48.4 °F 79% 29.92 in 10.0 mi South 3.5 mph - N/A   Clear
3:15 AM 53.4 °F 47.1 °F 79% 29.92 in 10.0 mi South 3.5 mph - N/A   Clear
3:35 AM 52.9 °F 47.1 °F 81% 29.92 in 10.0 mi SSW 3.5 mph - N/A   Clear
3:55 AM 52.5 °F 47.5 °F 83% 29.93 in 10.0 mi South 4.6 mph - N/A   Clear
4:15 AM 54.5 °F 48.6 °F 80% 29.94 in 10.0 mi SSW 5.8 mph - N/A   Clear
4:35 AM 54.9 °F 49.3 °F 81% 29.93 in 10.0 mi South 4.6 mph - N/A   Clear
4:55 AM 55.2 °F 48.7 °F 79% 29.94 in 10.0 mi Calm Calm - N/A   Clear
5:15 AM 54.5 °F 48.7 °F 81% 29.94 in 10.0 mi Calm Calm - N/A   Clear
5:35 AM 53.4 °F 47.7 °F 81% 29.95 in 10.0 mi Calm Calm - N/A   Clear
5:55 AM 53.2 °F 48.0 °F 82% 29.95 in 10.0 mi South 4.6 mph - N/A   Clear
6:15 AM 54.5 °F 49.1 °F 82% 29.96 in 10.0 mi SSW 4.6 mph - N/A   Clear
6:35 AM 53.6 °F 48.2 °F 82% 29.97 in 10.0 mi South 5.8 mph - N/A   Clear
6:55 AM 53.2 °F 47.8 °F 82% 29.98 in 10.0 mi South 3.5 mph - N/A   Clear
7:15 AM 51.1 °F 45.9 °F 82% 29.97 in 1.5 mi Calm Calm - N/A   Haze
7:55 AM 54.9 °F 48.7 °F 80% 30.00 in 10.0 mi SSW 4.6 mph - N/A   Clear
8:15 AM 56.7 °F 50.0 °F 78% 30.01 in 10.0 mi SE 5.8 mph - N/A   Clear
8:35 AM 57.9 °F 50.2 °F 75% 30.01 in 10.0 mi Calm Calm - N/A   Clear
9:15 AM 59.7 °F 51.4 °F 74% 30.01 in 10.0 mi Calm Calm - N/A   Clear
9:35 AM 62.1 °F 51.3 °F 68% 30.01 in 10.0 mi South 6.9 mph - N/A   Clear
9:55 AM 63.5 °F 51.8 °F 66% 30.01 in 10.0 mi SSW 5.8 mph - N/A   Clear
10:15 AM 65.1 °F 51.3 °F 61% 30.01 in 10.0 mi SSW 6.9 mph - N/A   Clear
10:35 AM 65.3 °F 50.9 °F 60% 30.02 in 10.0 mi SSW 3.5 mph - N/A   Clear
10:55 AM 65.5 °F 50.7 °F 59% 30.00 in 10.0 mi Calm Calm - N/A   Scattered Clouds
11:15 AM 66.9 °F 51.3 °F 57% 30.01 in 10.0 mi SSW 6.9 mph - N/A   Overcast
11:35 AM 66.2 °F 51.1 °F 58% 30.01 in 10.0 mi SSW 3.5 mph - N/A   Scattered Clouds
11:55 AM 66.7 °F 51.1 °F 57% 30.01 in 10.0 mi SSW 4.6 mph - N/A   Mostly Cloudy
12:15 PM 67.1 °F 50.5 °F 55% 30.01 in 10.0 mi South 5.8 mph - N/A   Overcast
12:35 PM 66.9 °F 50.2 °F 55% 30.00 in 10.0 mi SSE 5.8 mph - N/A   Overcast
12:55 PM 66.0 °F 49.5 °F 55% 30.00 in 10.0 mi South 4.6 mph - N/A   Overcast
1:15 PM 66.9 °F 50.7 °F 56% 29.99 in 10.0 mi SSW 4.6 mph - N/A   Overcast
1:35 PM 66.6 °F 50.9 °F 57% 30.00 in 10.0 mi SSW 3.5 mph - N/A   Overcast
1:55 PM 67.6 °F 51.3 °F 56% 29.99 in 10.0 mi SW 4.6 mph - N/A   Overcast
2:15 PM 67.5 °F 51.8 °F 57% 29.99 in 10.0 mi WSW 5.8 mph - N/A   Overcast
2:35 PM 66.6 °F 51.1 °F 57% 29.99 in 10.0 mi SSW 4.6 mph - N/A   Overcast
2:55 PM 65.7 °F 51.4 °F 60% 30.00 in 10.0 mi SSW 6.9 mph - N/A   Overcast
3:15 PM 64.9 °F 50.7 °F 60% 30.00 in 10.0 mi SSW 6.9 mph - N/A   Overcast
3:35 PM 64.6 °F 52.0 °F 64% 30.00 in 10.0 mi SSW 5.8 mph - N/A   Overcast
3:55 PM 64.9 °F 52.9 °F 65% 30.00 in 10.0 mi Calm Calm - N/A   Overcast
4:15 PM 64.9 °F 54.3 °F 68% 30.00 in 10.0 mi Calm Calm - N/A   Overcast
4:35 PM 64.8 °F 54.1 °F 68% 30.00 in 10.0 mi Calm Calm - N/A   Overcast
4:55 PM 64.8 °F 54.3 °F 69% 30.00 in 10.0 mi Calm Calm - N/A Rain Light Rain
5:15 PM 64.0 °F 53.8 °F 69% 30.01 in 10.0 mi Calm Calm - N/A   Overcast
5:35 PM 63.9 °F 53.2 °F 68% 30.01 in 10.0 mi South 3.5 mph - N/A   Overcast
5:55 PM 61.7 °F 53.8 °F 75% 30.02 in 4.0 mi SW 4.6 mph - N/A   Heavy Drizzle
6:15 PM 60.8 °F 54.5 °F 80% 30.02 in 10.0 mi SW 3.5 mph - N/A   Light Drizzle
6:35 PM 60.8 °F 53.4 °F 77% 30.02 in 10.0 mi Calm Calm - N/A   Overcast
6:55 PM 60.8 °F 52.5 °F 74% 30.02 in 10.0 mi South 3.5 mph - N/A   Overcast
7:15 PM 60.4 °F 53.4 °F 78% 30.04 in 10.0 mi Calm Calm - N/A   Overcast
7:35 PM 60.1 °F 53.6 °F 79% 30.05 in 10.0 mi Calm Calm - N/A   Overcast
7:55 PM 59.9 °F 54.0 °F 81% 30.04 in 10.0 mi Calm Calm - N/A   Overcast
8:15 PM 59.9 °F 54.0 °F 81% 30.05 in 10.0 mi Calm Calm - N/A   Overcast
8:35 PM 59.5 °F 53.8 °F 81% 30.05 in 10.0 mi Calm Calm - N/A   Overcast
8:55 PM 59.2 °F 53.6 °F 82% 30.05 in 10.0 mi Calm Calm - N/A   Overcast
9:15 PM 59.2 °F 53.8 °F 82% 30.05 in 10.0 mi Calm Calm - N/A   Overcast
9:35 PM 59.4 °F 54.0 °F 82% 30.06 in 10.0 mi SSW 3.5 mph - N/A   Overcast
10:15 PM 59.4 °F 53.8 °F 82% 30.07 in 10.0 mi Calm Calm - N/A   Overcast
10:35 PM 59.2 °F 53.4 °F 81% 30.07 in 10.0 mi Calm Calm - N/A   Overcast
10:55 PM 59.0 °F 53.1 °F 81% 30.07 in 10.0 mi Calm Calm - N/A   Overcast
11:15 PM 58.1 °F 52.5 °F 82% 30.06 in 10.0 mi South 3.5 mph - N/A   Mostly Cloudy
11:35 PM 57.4 °F 52.0 °F 82% 30.06 in 10.0 mi Calm Calm - N/A   Scattered Clouds
11:55 PM 57.2 °F 52.0 °F 83% 30.06 in 10.0 mi SSW 3.5 mph - N/A   Clear